TimeAKST,TemperatureF,Dew PointF,Humidity,Sea Level PressureIn,VisibilityMPH,Wind Direction,Wind SpeedMPH,Gust SpeedMPH,PrecipitationIn,Events,Conditions,WindDirDegrees,DateUTC
12:16 AM,-2.2,-5.8,85,30.25,10.0,NNW,4.6,-,N/A,,Clear,330,2012-11-13 09:16:00
12:36 AM,6.8,3.2,85,30.24,10.0,North,11.5,17.3,N/A,,Clear,360,2012-11-13 09:36:00
12:56 AM,10.4,1.4,67,30.26,10.0,SSW,5.8,-,N/A,,Clear,200,2012-11-13 09:56:00
1:16 AM,1.4,-16.6,43,30.26,10.0,NE,3.5,-,N/A,,Clear,40,2012-11-13 10:16:00
1:36 AM,1.4,-2.2,85,30.26,10.0,Calm,Calm,-,N/A,,Clear,0,2012-11-13 10:36:00
1:56 AM,-7.6,-25.6,41,30.26,10.0,Calm,Calm,-,N/A,,Clear,0,2012-11-13 10:56:00
2:16 AM,-7.6,-11.2,84,30.27,10.0,NW,4.6,-,N/A,,Clear,320,2012-11-13 11:16:00
2:36 AM,3.2,3.2,100,30.27,10.0,Calm,Calm,-,N/A,,Clear,0,2012-11-13 11:36:00
2:56 AM,8.6,1.4,73,30.26,10.0,Calm,Calm,-,N/A,,Clear,0,2012-11-13 11:56:00
3:16 AM,10.4,3.2,73,30.26,10.0,NNE,4.6,-,N/A,,Clear,20,2012-11-13 12:16:00
3:36 AM,10.4,1.4,67,30.25,10.0,NNE,9.2,-,N/A,,Clear,30,2012-11-13 12:36:00
3:56 AM,-0.4,-14.8,51,30.24,10.0,Calm,Calm,-,N/A,,Clear,0,2012-11-13 12:56:00
4:16 AM,-2.2,-7.6,78,30.24,10.0,Calm,Calm,-,N/A,,Clear,0,2012-11-13 13:16:00
4:36 AM,-2.2,-9999,N/A,30.24,10.0,South,5.8,-,N/A,,Clear,190,2012-11-13 13:36:00
4:56 AM,-7.6,-18.4,59,30.24,10.0,Calm,Calm,-,N/A,,Clear,0,2012-11-13 13:56:00
5:16 AM,-9.4,-9.4,100,30.23,10.0,South,4.6,-,N/A,,Clear,180,2012-11-13 14:16:00
5:36 AM,-11.2,-27.4,45,30.23,10.0,SSW,3.5,-,N/A,,Clear,200,2012-11-13 14:36:00
5:56 AM,-11.2,-16.6,77,30.24,10.0,South,4.6,-,N/A,,Clear,190,2012-11-13 14:56:00
6:16 AM,-11.2,-14.8,84,30.24,10.0,Calm,Calm,-,N/A,,Clear,0,2012-11-13 15:16:00
6:36 AM,-9.4,-11.2,92,30.24,10.0,South,3.5,-,N/A,,Clear,170,2012-11-13 15:36:00
6:56 AM,-9.4,-14.8,77,30.25,10.0,Calm,Calm,-,N/A,,Clear,0,2012-11-13 15:56:00
7:16 AM,-7.6,-9.4,92,30.24,10.0,Calm,Calm,-,N/A,,Clear,0,2012-11-13 16:16:00
7:36 AM,-5.8,-11.2,77,30.24,10.0,Calm,Calm,-,N/A,,Clear,0,2012-11-13 16:36:00
7:56 AM,-0.4,-2.2,92,30.23,10.0,ENE,5.8,-,N/A,,Clear,70,2012-11-13 16:56:00
8:16 AM,-0.4,-5.8,78,30.23,10.0,East,6.9,-,N/A,,Clear,100,2012-11-13 17:16:00
8:36 AM,1.4,-4.0,78,30.22,10.0,NE,8.1,-,N/A,,Clear,50,2012-11-13 17:36:00
9:16 AM,-9999,-9999,N/A,-9999,-9999.0,North,-9999.0,-,N/A,,Unknown,0,2012-11-13 18:16:00
9:36 AM,-9999,-9999,N/A,30.22,-9999.0,SSE,3.5,-,N/A,,Unknown,150,2012-11-13 18:36:00
9:56 AM,-9999,-9999,N/A,-9999,-9999.0,North,-9999.0,-,N/A,,Unknown,0,2012-11-13 18:56:00
10:16 AM,-5.8,-9.4,84,30.23,10.0,Calm,Calm,-,N/A,,Clear,0,2012-11-13 19:16:00
10:36 AM,-7.6,-14.8,71,30.23,10.0,Calm,Calm,-,N/A,,Clear,0,2012-11-13 19:36:00
10:56 AM,-7.6,-11.2,84,30.23,3.0,Calm,Calm,-,N/A,,Clear,0,2012-11-13 19:56:00
11:16 AM,-7.6,-13.0,77,30.22,10.0,Calm,Calm,-,N/A,,Clear,0,2012-11-13 20:16:00
11:36 AM,-7.6,-14.8,71,30.21,10.0,Calm,Calm,-,N/A,,Clear,0,2012-11-13 20:36:00
11:56 AM,-7.6,-14.8,71,30.20,10.0,Calm,Calm,-,N/A,,Clear,0,2012-11-13 20:56:00
12:16 PM,-9.4,-14.8,77,30.19,10.0,Calm,Calm,-,N/A,,Clear,0,2012-11-13 21:16:00
12:36 PM,-5.8,-11.2,77,30.19,10.0,NE,4.6,-,N/A,,Clear,40,2012-11-13 21:36:00
12:56 PM,-0.4,-0.4,100,30.19,10.0,NE,3.5,-,N/A,,Clear,40,2012-11-13 21:56:00
1:16 PM,-7.6,-18.4,59,30.18,10.0,Calm,Calm,-,N/A,,Clear,0,2012-11-13 22:16:00
1:36 PM,-5.8,-9.4,84,30.17,10.0,NE,3.5,-,N/A,,Clear,40,2012-11-13 22:36:00
1:56 PM,-2.2,-7.6,78,30.15,10.0,NE,3.5,-,N/A,,Clear,50,2012-11-13 22:56:00
2:16 PM,-0.4,-5.8,78,30.14,10.0,NE,3.5,-,N/A,,Clear,40,2012-11-13 23:16:00
2:36 PM,-0.4,-5.8,78,30.13,10.0,NE,4.6,-,N/A,,Clear,40,2012-11-13 23:36:00
2:56 PM,1.4,-2.2,85,30.11,10.0,NE,6.9,-,N/A,,Clear,40,2012-11-13 23:56:00
3:16 PM,3.2,-0.4,85,30.10,10.0,NE,5.8,-,N/A,,Clear,40,2012-11-14 00:16:00
3:36 PM,3.2,-2.2,78,30.09,10.0,East,4.6,-,N/A,,Clear,100,2012-11-14 00:36:00
3:56 PM,3.2,-4.0,72,30.07,10.0,East,5.8,-,N/A,,Clear,80,2012-11-14 00:56:00
4:16 PM,-0.4,-11.2,60,30.07,10.0,Calm,Calm,-,N/A,,Clear,0,2012-11-14 01:16:00
4:36 PM,-4.0,-9.4,78,30.06,10.0,SSW,3.5,-,N/A,,Clear,210,2012-11-14 01:36:00
4:56 PM,-2.2,-7.6,78,30.05,10.0,Calm,Calm,-,N/A,,Clear,0,2012-11-14 01:56:00
5:16 PM,-2.2,-7.6,78,30.04,10.0,Calm,Calm,-,N/A,,Clear,0,2012-11-14 02:16:00
5:36 PM,-2.2,-5.8,85,30.03,10.0,Calm,Calm,-,N/A,,Clear,0,2012-11-14 02:36:00
5:56 PM,-4.0,-9.4,78,30.02,10.0,Calm,Calm,-,N/A,,Clear,0,2012-11-14 02:56:00
6:16 PM,-2.2,-9.4,71,30.01,10.0,North,3.5,-,N/A,,Clear,360,2012-11-14 03:16:00
6:36 PM,-0.4,-4.0,85,30.00,10.0,NNE,4.6,-,N/A,,Clear,20,2012-11-14 03:36:00
6:56 PM,1.4,-5.8,72,30.00,10.0,Calm,Calm,-,N/A,,Clear,0,2012-11-14 03:56:00
7:16 PM,1.4,-5.8,72,29.99,10.0,NNE,3.5,-,N/A,,Clear,30,2012-11-14 04:16:00
7:36 PM,3.2,-5.8,66,29.98,10.0,Calm,Calm,-,N/A,,Clear,0,2012-11-14 04:36:00
7:56 PM,3.2,-7.6,61,29.97,10.0,Calm,Calm,-,N/A,,Clear,0,2012-11-14 04:56:00
8:16 PM,1.4,-7.6,66,29.96,10.0,NNE,3.5,-,N/A,,Clear,20,2012-11-14 05:16:00
8:36 PM,1.4,-7.6,66,29.95,10.0,SSW,3.5,-,N/A,,Clear,200,2012-11-14 05:36:00
8:56 PM,1.4,-5.8,72,29.93,10.0,Calm,Calm,-,N/A,,Clear,0,2012-11-14 05:56:00
9:16 PM,-0.4,-9.4,66,29.91,10.0,Calm,Calm,-,N/A,,Clear,0,2012-11-14 06:16:00
9:36 PM,1.4,-5.8,72,29.91,10.0,South,3.5,-,N/A,,Clear,180,2012-11-14 06:36:00
9:56 PM,-2.2,-13.0,60,29.91,10.0,SSW,3.5,-,N/A,,Clear,210,2012-11-14 06:56:00
10:16 PM,-2.2,-7.6,78,29.90,10.0,SSW,3.5,-,N/A,,Clear,210,2012-11-14 07:16:00
10:36 PM,-2.2,-11.2,66,29.90,10.0,Calm,Calm,-,N/A,,Clear,0,2012-11-14 07:36:00
10:56 PM,-4.0,-9.4,78,29.90,10.0,WSW,3.5,-,N/A,,Clear,240,2012-11-14 07:56:00
11:16 PM,-5.8,-9.4,84,29.89,10.0,Calm,Calm,-,N/A,,Clear,0,2012-11-14 08:16:00
11:36 PM,-4.0,-9.4,78,29.89,10.0,SSW,3.5,-,N/A,,Clear,210,2012-11-14 08:36:00
11:56 PM,-5.8,-13.0,71,29.89,10.0,WSW,3.5,-,N/A,,Clear,250,2012-11-14 08:56:00